Location: Newark
(48.9886°N, 1.2358°E)
Time: 17:23:13
(UTC+00:00)

Transit 4A - Visible Passes

Search period start: 19 November 2019 00:00
Search period end: 29 November 2019 00:00
Orbit: 869 x 976 km, 66.8° (Epoch: 18 November)

Date Brightness Start Highest point End Pass type
(mag) Time Alt. Az. Time Alt. Az. Time Alt. Az.
19 Nov 9.9 03:34:50 17° N 03:35:44 17° NNE 03:39:30 10° ENE visible
19 Nov 8.8 05:18:21 11° NNW 05:23:45 42° NE 05:29:16 10° ESE visible
20 Nov 9.8 03:44:10 18° N 03:45:33 20° NNE 03:49:45 10° ENE visible
20 Nov 8.4 05:27:41 11° NNW 05:33:14 56° NE 05:38:58 10° SE visible
21 Nov 9.6 03:53:32 20° N 03:55:19 23° NNE 03:59:56 10° E visible
21 Nov 7.9 05:37:04 12° NNW 05:42:40 76° NE 05:48:29 10° SE visible
22 Nov 10.6 02:19:27 11° NE 02:19:27 11° NE 02:19:44 10° NE visible
22 Nov 9.4 04:02:59 23° N 04:05:00 28° NE 04:10:01 10° E visible
22 Nov 7.7 05:46:31 12° NW 05:52:01 80° WSW 05:57:49 10° SSE visible
23 Nov 10.5 02:28:56 13° NE 02:28:56 13° NE 02:29:56 10° NE visible
23 Nov 9.0 04:12:28 27° N 04:14:38 36° NE 04:19:58 10° ESE visible
23 Nov 7.9 05:56:01 13° NW 06:01:17 57° WSW 06:06:57 10° SSE visible
24 Nov 10.3 02:38:29 15° NE 02:38:29 15° NE 02:40:10 10° ENE visible
24 Nov 8.6 04:22:01 33° N 04:24:10 46° NE 04:29:46 10° ESE visible
24 Nov 8.3 06:05:34 13° NW 06:10:28 40° WSW 06:15:50 10° S visible
25 Nov 10.2 02:48:06 18° NE 02:48:06 18° NE 02:50:25 10° ENE visible
25 Nov 8.1 04:31:39 40° NNW 04:33:39 62° NE 04:39:25 10° SE visible
25 Nov 8.7 06:15:12 12° NW 06:19:36 28° WSW 06:24:25 10° SSW visible
26 Nov 9.9 02:57:48 21° ENE 02:57:48 21° ENE 03:00:33 10° E visible
26 Nov 7.7 04:41:21 49° NNW 04:43:03 84° NE 04:48:52 10° SE visible
26 Nov 9.2 06:24:55 11° WNW 06:28:38 19° WSW 06:32:36 10° SSW visible
27 Nov 9.7 03:07:35 24° ENE 03:07:35 24° ENE 03:10:37 10° E visible
27 Nov 7.6 04:51:09 55° WNW 04:52:22 71° WSW 04:58:08 10° SSE visible
27 Nov 9.5 06:35:12 10° WNW 06:37:37 13° WSW 06:40:01 10° SW visible
28 Nov 9.5 03:17:27 28° E 03:17:27 28° E 03:20:31 10° ESE visible
28 Nov 7.9 05:01:01 48° W 05:01:36 50° WSW 05:07:10 10° S visible
28 Nov 9.9 18:22:00 10° SSE 18:22:42 12° SSE 18:22:42 12° SSE visible
28 Nov 10.3 20:05:52 10° SW 20:06:17 12° SW 20:06:17 12° SW visible
